Find Starlink 11572

NORAD ID: 62990 Int'l Des: 2025-031 Owner: SPXS Country: US Constellation: starlink operational
LEOCIRCULAR

現在のビュー

3D地球を読み込み中...

About Starlink 11572

Starlink 11572 (NORAD 62990) is a starlink constellation satellite (v2 mini d2c) launched Feb 11, 2025 by SPXS of US. It operates in LEO, CIRCULAR orbit with a mass of 960.00 kg.

Starlink 11572について

説明を読み込み中...

次回通過

Passes for default location (London). Set your location on the main map for personalized predictions.

高度履歴

Loading altitude history...

軌道要素

1 62990U 25031K 26192.86260684 .00109848 00000-0 84285-3 0 9997
2 62990 42.9997 332.7984 0002703 265.8953 94.1606 15.70991221 82276
Epoch: Jul 11, 2026 • Age: 18 hours

現在のステータス

高度 356.0 km
遠地点 / 近地点 N/A
速度 7.70 km/s
衛星直下点 21.45°N, 164.82°W
打ち上げ日 Feb 11, 2025
運用期間 1.4 years
タイプ internet

技術仕様

分類 Payload
質量 960.00 kg
乾燥質量 910.00 kg
総質量 960.00 kg
長さ 0.30 m
直径 4.10 m
スパン 29.00 m
形状 Box + pan
製造者 SPXS
バスタイプ Starlink V2MD
フェーズステータス In Orbit
所有者/国 SPXS/US

Most Searched